Flag for Spain Weather past 2 weeks in Alicante, Spain

Now
82 °F

Passing clouds.


Feels Like: 85 °F
Forecast: 71 / 87 °F
Wind: 3 mph from Northeast

Location: Alicante / El Altet

Current Time: Aug 31, 2014 at 11:16:01 AM

Latest Report: Aug 31, 2014 at 10:30 AM


Visibility: N/A

Pressure: 30.01 "Hg

Humidity: 62%

Dew point: 68 °F

Location of AlicanteLocation

Historic Weather in Alicante — Graph

°F

Alicante temperature yesterday

Maximum temperature yesterday: 84 °F (at 10:30 AM)
Minimum temperature yesterday: 75 °F (at 7:30 AM)
Average temperature yesterday: 80 °F

Past Weeks' High & Low Weather Summary

 TemperatureHumidityPressure
High93 °F (Aug 26, 12:30 PM)94% (Aug 17, 5:00 AM)30.12 "Hg (Aug 17, 5:00 AM)
Low70 °F (Aug 18, 4:30 AM)24% (Aug 26, 12:30 PM)29.83 "Hg (Aug 18, 7:30 PM)
Average80 °F70%29.98 "Hg
* Reported Aug 16 10:00 AM — Aug 31 10:00 AM, Alicante, Weather by CustomWeather, © 2014

Note: Actual official high and low records may vary slightly from our data, if they occured in-between our weather recording intervals... More about our weather records

Advertising

Alicante weather history for previous 24 hours

 ConditionsComfort  
Time TempWeatherWind HumidityBarometerVisibility
10:00 AM
Aug 31
81 °FPassing clouds.5 mph66%30.04 "HgN/A
9:30 AM81 °FPassing clouds.1 mph70%30.04 "HgN/A
9:00 AM79 °FPassing clouds.1 mph74%30.01 "HgN/A
8:30 AM77 °FPassing clouds.3 mph79%30.01 "HgN/A
8:00 AM75 °FPassing clouds.2 mph78%30.01 "HgN/A
7:30 AM73 °FPassing clouds.No wind83%30.01 "HgN/A
7:00 AM73 °FPassing clouds.No wind83%30.01 "HgN/A
6:30 AM73 °FPassing clouds.No wind83%30.01 "HgN/A
6:00 AM73 °FPassing clouds.No wind83%30.01 "HgN/A
5:30 AM77 °FPassing clouds.3 mph74%30.01 "HgN/A
5:00 AM77 °FPassing clouds.5 mph79%30.01 "HgN/A
4:30 AM77 °FPassing clouds.2 mph79%30.01 "HgN/A
4:00 AM79 °FPassing clouds.1 mph74%30.01 "HgN/A
3:30 AM79 °FPassing clouds.6 mph74%30.01 "HgN/A
3:00 AM79 °FPassing clouds.8 mph74%30.01 "HgN/A
2:30 AM77 °FPassing clouds.7 mph79%30.04 "HgN/A
2:00 AM79 °FPassing clouds.8 mph74%30.04 "HgN/A
1:30 AM79 °FPassing clouds.8 mph79%30.04 "HgN/A
1:00 AM79 °FPassing clouds.8 mph74%30.04 "HgN/A
12:30 AM79 °FPassing clouds.9 mph79%30.04 "HgN/A
12:00 AM79 °FPassing clouds.12 mph79%30.04 "HgN/A
11:30 PM
Aug 30
79 °FPassing clouds.10 mph79%30.04 "HgN/A
11:00 PM79 °FPassing clouds.12 mph79%30.01 "HgN/A
10:30 PM79 °FPassing clouds.13 mph79%30.01 "HgN/A
10:00 PM81 °FPassing clouds.13 mph74%30.01 "HgN/A
9:30 PM81 °FPassing clouds.12 mph74%30.01 "HgN/A
9:00 PM81 °FPassing clouds.12 mph74%30.01 "HgN/A
8:30 PM81 °FPassing clouds.13 mph70%29.98 "HgN/A
8:00 PM81 °FScattered clouds.13 mph74%29.98 "HgN/A
7:30 PM81 °FScattered clouds.13 mph74%29.98 "HgN/A
7:00 PM82 °FScattered clouds.13 mph66%29.98 "HgN/A
6:30 PM82 °FScattered clouds.13 mph70%29.98 "HgN/A
6:00 PM82 °FPassing clouds.12 mph70%29.98 "HgN/A
5:30 PM84 °FPassing clouds.12 mph66%29.98 "HgN/A
5:00 PM82 °FPassing clouds.12 mph66%29.98 "HgN/A
4:30 PM84 °FPassing clouds.13 mph62%29.98 "HgN/A
4:00 PM84 °FPassing clouds.14 mph55%30.01 "HgN/A
3:30 PM84 °FPassing clouds.16 mph58%30.01 "HgN/A
3:00 PM84 °FPassing clouds.18 mph58%30.01 "HgN/A
2:30 PM82 °FPassing clouds.17 mph66%30.01 "HgN/A
2:00 PM84 °FPassing clouds.15 mph62%30.01 "HgN/A
1:30 PM84 °FPassing clouds.12 mph62%30.04 "HgN/A
1:00 PM84 °FPassing clouds.10 mph58%30.04 "HgN/A
12:30 PM84 °FPassing clouds.6 mph58%30.04 "HgN/A
12:00 PM84 °FPassing clouds.5 mph58%30.04 "HgN/A
11:30 AM82 °FPassing clouds.3 mph66%30.04 "HgN/A
11:00 AM82 °FPassing clouds.3 mph62%30.04 "HgN/A
Weather by CustomWeather, © 2014

See weather overviewHow to use our weather pages